SL-8 DEB, 23263

Orbit data source: Space-Track

SL-8 DEB, 23263 is space debris in LEO originally from a launch on Tue, 12 Feb 1991 UTC launched from the Plesetsk Missile And Space Complex (PKMTR). Debris objects in space refer to the collection of defunct objects orbiting the Earth. Examples of debris include non-operational satellites, rocket bodies, and fragments generated from explosions, collisions, or faulty payload assembly.

Loading next visibility...
Identifier
23263, 1991-009CU
Orbit
LEO
Country
Flag of CISCIS
Related business
Manufacturer
Unknown
Mission
Spacecraft
Bus & Motor
Unknown
Mass
Unknown
Launch date (UTC)
1991-02-12 (35 years ago)
Launch vehicle
Unknown
Launch site
Plesetsk Missile And Space Complex (PKMTR)
Object type
Payload
Rocket body
Debris
Shape & HBR
Unknown shape, 0.1 m
Radar Cross Section
Medium (>0.1 m² and <1 m²)

Expand to show TLE details & history
Last TLE update: 3 days ago

TLE from 3 days ago
0 SL-8 DEB
1 23263U 91009CU  26170.60589207  .00000272  00000-0  29739-2 0  9991
2 23263  74.1288 219.3889 0160697 173.1921 342.4231 12.11013538635447
Epoch: 2026-06-19T14:32Z
TLE epoch observation values (Epoch: 2026-06-19T14:32:29.074Z)
Latitude
23.96754°
Longitude
-93.79007°
Altitude
1,511.762 km
Speed
7.165 km/s
True Right ascension
02h 08m 39s
True Declination
23° 51' 08"
Sunlit
Object was in daylight at epoch
Visualization orbit readout
Latitude
Unknown
Longitude
Unknown
Altitude
Unknown
Speed
Unknown
Apparent Right ascension
Unknown
Apparent Declination
Unknown
Sunlit
N/A
Visualization observer readout
Local Sidereal Time
23:21:48
Azimuth
Unknown
Elevation
Unknown
Doppler factor
Unknown
Orbital elements
Apogee altitude
1,758.482 km
Perigee altitude
1,501.111 km
Semi-major axis
8,007.934 km
Eccentricity
0.01607
Inclination
74.1288°
RAAN
219.3889°
Arg. of periapsis
173.1921°
True anomaly
341.85617°
Mean anomaly
342.4231°
Eccentric anomaly
342.14073°
Mean motion
3.02874 °/min
Orbital period
118.86 mins
BSTAR
0.0029739
Loading maneuver chart data...
Computing Atmospheric mass density...
Loading historical data...
Loading historical data...
Loading historical data...
Loading historical data...
Loading historical data...
Loading historical data...
Loading historical data...

Documentation

Showing up to 5 results
|